Mayport NS, FL

10:09 PM EST on December 16, 2017 (GMT -0500)
Mayport Naval Station / Adm. David L. McDonald Field

Weather History for KNRB - December, 2012

Change the Weather History Date:

Friday, December 7, 2012

  Actual Average Record
Temperature  
Mean Temperature 58 °F -  
Max Temperature 62 °F 65 °F 82 °F (2013)
Min Temperature 55 °F 52 °F 32 °F (2010)
Degree Days  
Heating Degree Days 6    
Growing Degree Days 8 (Base 50)    
Moisture  
Dew Point 59 °F    
Average Humidity 96    
Maximum Humidity 100    
Minimum Humidity 88    
Precipitation  
Precipitation 0.00 in - - ()
Sea Level Pressure  
Sea Level Pressure 30.02 in    
Wind  
Wind Speed 9 mph (North)    
Max Wind Speed 16 mph    
Max Gust Speed 22 mph    
Visibility 3 miles    
Events Fog    
Averages and records for this station are not official NWS values.
T = Trace of Precipitation, MM = Missing Value Source: NWS Daily Summary

Daily Weather History Graph

Daily Weather History Graph

Search for Another Location

Airport or City:

Trip Planner

Search our weather history database for the weather conditions in past years. The results will help you decide how hot, cold, wet, or windy it might be!

Date:

Astronomy

Dec. 07, 2012 Rise Set
Actual Time 7:09 AM EST 5:24 PM EST
Civil Twilight 6:43 AM EST 5:51 PM EST
Nautical Twilight 6:13 AM EST 6:21 PM EST
Astronomical Twilight 5:44 AM EST 6:50 PM EST
Moon 12:50 AM EST (12/7) 1:00 PM EST (12/7)
Length of Visible Light 11h 07m
Length of Day
10h 15m
Last Quarter, 39% of the Moon is Illuminated
Dec 7
Last Quarter
Dec 13
New
Dec 20
First Quarter
Dec 28
Full
Jan 4
Last Quarter

Hourly Weather History & Observations

Time (EST) Temp. Dew Point Humidity Pressure Visibility Wind Dir Wind Speed Gust Speed Precip Events Conditions
12:52 AM 62.1 °F 62.1 °F 100% 30.00 in 1.0 mi North 9.2 mph - N/A   Overcast
1:52 AM 62.1 °F 62.1 °F 100% 30.01 in 1.0 mi North 11.5 mph 20.7 mph N/A   Overcast
2:07 AM 62.6 °F 60.8 °F 94% 30.01 in 4.0 mi North 16.1 mph 20.7 mph N/A   Overcast
2:52 AM 61.0 °F 60.1 °F 97% 30.01 in 3.0 mi North 12.7 mph 20.7 mph N/A   Overcast
3:52 AM 61.0 °F 60.1 °F 97% 30.00 in 3.0 mi North 13.8 mph 19.6 mph N/A   Overcast
4:52 AM 60.1 °F 59.0 °F 96% 29.99 in 4.0 mi North 15.0 mph 21.9 mph N/A   Overcast
5:52 AM 60.1 °F 59.0 °F 96% 30.00 in 3.0 mi North 12.7 mph 20.7 mph N/A   Overcast
6:52 AM 59.0 °F 59.0 °F 100% 30.02 in 2.5 mi North 13.8 mph 21.9 mph N/A   Overcast
7:00 AM 59.0 °F 59.0 °F 100% 30.02 in 0.5 mi North 16.1 mph 21.9 mph N/A Fog Fog
7:25 AM 59.0 °F 59.0 °F 100% 30.03 in 0.8 mi North 13.8 mph 20.7 mph N/A   Mist
7:52 AM 59.0 °F 59.0 °F 100% 30.04 in 0.8 mi North 12.7 mph 19.6 mph N/A   Mist
8:52 AM 59.0 °F 59.0 °F 100% 30.04 in 2.0 mi North 9.2 mph - N/A   Overcast
9:40 AM 60.8 °F 59.0 °F 94% 30.06 in 4.0 mi North 8.1 mph - N/A   Overcast
9:52 AM 60.1 °F 59.0 °F 96% 30.06 in 4.0 mi NNE 8.1 mph - N/A   Overcast
10:52 AM 60.1 °F 59.0 °F 96% 30.06 in 0.5 mi North 10.4 mph - N/A Fog Fog
11:52 AM 60.1 °F 59.0 °F 96% 30.04 in 0.5 mi North 6.9 mph - N/A Fog Fog
12:28 PM 60.8 °F 59.0 °F 94% 30.02 in 1.0 mi North 6.9 mph - N/A   Overcast
12:52 PM 60.1 °F 59.0 °F 96% 30.01 in 0.5 mi NNE 6.9 mph - N/A Fog Fog
1:18 PM 60.8 °F 59.0 °F 94% 30.00 in 0.8 mi NNE 5.8 mph - N/A   Overcast
1:52 PM 60.1 °F 59.0 °F 96% 30.00 in 0.5 mi NNE 6.9 mph - N/A Fog Fog
2:52 PM 59.0 °F 57.9 °F 96% 29.98 in 0.8 mi North 8.1 mph - N/A   Overcast
3:43 PM 60.8 °F 57.2 °F 88% 29.99 in 2.0 mi North 6.9 mph - N/A   Overcast
3:52 PM 59.0 °F 57.9 °F 96% 29.99 in 2.0 mi NE 8.1 mph - N/A   Overcast
4:52 PM 59.0 °F 57.9 °F 96% 29.99 in 1.0 mi North 5.8 mph - N/A   Overcast
5:52 PM 60.1 °F 59.0 °F 96% 29.99 in 1.5 mi North 5.8 mph - N/A   Overcast
5:59 PM 60.8 °F 59.0 °F 94% 30.00 in 4.0 mi North - - N/A   Overcast
6:47 PM 60.8 °F 59.0 °F 94% 30.01 in 6.0 mi North - - N/A   Overcast
6:52 PM 60.1 °F 59.0 °F 96% 30.01 in 6.0 mi North - - N/A   Overcast
7:52 PM 61.0 °F 59.0 °F 93% 30.02 in 9.0 mi ENE 3.5 mph - N/A   Overcast
8:52 PM 61.0 °F 59.0 °F 93% 30.03 in 10.0 mi Calm Calm - N/A   Overcast
9:52 PM 61.0 °F 57.9 °F 90% 30.03 in 9.0 mi Calm Calm - N/A   Mostly Cloudy
10:02 PM 60.8 °F 57.2 °F 88% 30.03 in 8.0 mi Calm Calm - N/A   Scattered Clouds
10:52 PM 57.0 °F 55.9 °F 96% 30.03 in 6.0 mi Calm Calm - N/A   Clear
11:14 PM 55.4 °F 55.4 °F 100% 30.04 in 2.0 mi Calm Calm - N/A   Clear
11:19 PM 57.2 °F 55.4 °F 94% 30.04 in 3.0 mi Calm Calm - N/A   Partly Cloudy
11:33 PM 57.2 °F 57.2 °F 100% 30.04 in 4.0 mi Calm Calm - N/A   Mostly Cloudy
11:52 PM 57.0 °F 57.0 °F 100% 30.03 in 3.0 mi Calm Calm - N/A   Overcast